CSN6062 VVTS-ZGHA

Flight info

Callsign CSN6062
Flight time 2h 48m
Altitude 41000
Route PATMA5G PATMA W12 PCA G221 BUNTA A1 IKELA/N0486F410 P901 BIGEX A461 BEKOL/K0911S1220 A461 YIN/K0907S1250 A461 MEXON MEX1W
Aircraft A359/H-SDE2E3GHIJ3J4J5LM1ORWXY/LB1D1

Departure

Time 2026-05-05 00:08
Airport Tan Son Nhat International Airport (VVTS)

Arrival

Time 2026-05-05 02:56
Airport Changsha Huanghua International Airport (ZGHA)
Time Latitude Longitude Altitude Speed Heading
2026-05-04 23:45 10.81214 106.65172 44 ft 0 kts 161°
2026-05-05 00:01 10.81229 106.65167 44 ft 4 kts 171°
2026-05-05 00:01 10.81255 106.65168 41 ft 4 kts 202°
2026-05-05 00:01 10.81276 106.65183 41 ft 4 kts 237°
2026-05-05 00:01 10.81282 106.65195 41 ft 0 kts 250°
2026-05-05 00:03 10.81291 106.65125 44 ft 23 kts 290°
2026-05-05 00:04 10.81330 106.64987 44 ft 18 kts 256°
2026-05-05 00:04 10.81291 106.64869 44 ft 19 kts 251°
2026-05-05 00:04 10.81245 106.64736 45 ft 21 kts 247°
2026-05-05 00:04 10.81210 106.64616 46 ft 18 kts 268°
2026-05-05 00:05 10.81226 106.64489 44 ft 20 kts 279°
2026-05-05 00:05 10.81297 106.64386 43 ft 18 kts 335°
2026-05-05 00:05 10.81394 106.64360 44 ft 4 kts 32°
2026-05-05 00:05 10.81397 106.64372 44 ft 0 kts 70°
2026-05-05 00:07 10.81397 106.64373 44 ft 2 kts 70°
2026-05-05 00:07 10.81487 106.64615 45 ft 74 kts 68°
2026-05-05 00:07 10.81752 106.65310 42 ft 138 kts 69°
2026-05-05 00:07 10.82149 106.66378 261 ft 175 kts 69°
2026-05-05 00:08 10.82588 106.67504 1060 ft 165 kts 66°
2026-05-05 00:08 10.83047 106.68577 1724 ft 169 kts 66°
2026-05-05 00:08 10.83542 106.69725 1975 ft 186 kts 67°
2026-05-05 00:08 10.84076 106.70993 2182 ft 204 kts 67°
2026-05-05 00:09 10.84637 106.72343 2509 ft 216 kts 67°
2026-05-05 00:09 10.85246 106.73820 2740 ft 237 kts 66°
2026-05-05 00:09 10.85910 106.75439 3019 ft 256 kts 66°
2026-05-05 00:09 10.86432 106.77205 3532 ft 264 kts 79°
2026-05-05 00:10 10.86669 106.79052 4227 ft 263 kts 84°
2026-05-05 00:10 10.86854 106.80908 4908 ft 264 kts 84°
2026-05-05 00:10 10.87035 106.82750 5557 ft 265 kts 84°
2026-05-05 00:10 10.87224 106.84620 6209 ft 266 kts 84°
2026-05-05 00:11 10.87416 106.86498 6778 ft 268 kts 84°
2026-05-05 00:11 10.87611 106.88395 7337 ft 271 kts 84°
2026-05-05 00:11 10.87809 106.90316 7861 ft 274 kts 84°
2026-05-05 00:11 10.88006 106.92229 8405 ft 277 kts 84°
2026-05-05 00:12 10.88208 106.94187 8967 ft 280 kts 84°
2026-05-05 00:12 10.88412 106.96162 9511 ft 282 kts 84°
2026-05-05 00:12 10.88618 106.98162 10061 ft 285 kts 84°
2026-05-05 00:12 10.88828 107.00199 10357 ft 296 kts 84°
2026-05-05 00:13 10.89048 107.02332 10570 ft 310 kts 84°
2026-05-05 00:13 10.89345 107.04546 10762 ft 323 kts 78°
2026-05-05 00:13 10.90160 107.06709 10948 ft 335 kts 60°
2026-05-05 00:13 10.91704 107.08532 11114 ft 348 kts 40°
2026-05-05 00:14 10.93712 107.09912 11314 ft 358 kts 32°
2026-05-05 00:14 10.95878 107.11220 11611 ft 364 kts 32°
2026-05-05 00:14 10.98065 107.12534 11973 ft 367 kts 32°
2026-05-05 00:14 11.00271 107.13871 12357 ft 369 kts 32°
2026-05-05 00:15 11.02453 107.15202 12726 ft 371 kts 32°
2026-05-05 00:15 11.04674 107.16568 13095 ft 374 kts 32°
2026-05-05 00:15 11.06907 107.17939 13464 ft 376 kts 32°
2026-05-05 00:15 11.09155 107.19319 13796 ft 378 kts 32°
2026-05-05 00:16 11.11417 107.20709 14103 ft 381 kts 32°
2026-05-05 00:16 11.13694 107.22109 14403 ft 383 kts 32°
2026-05-05 00:16 11.15965 107.23471 14707 ft 386 kts 29°
2026-05-05 00:16 11.18373 107.24711 15028 ft 388 kts 27°
2026-05-05 00:17 11.20816 107.25902 15333 ft 391 kts 26°
2026-05-05 00:17 11.23284 107.27098 15655 ft 393 kts 26°
2026-05-05 00:17 11.25759 107.28298 15964 ft 395 kts 26°
2026-05-05 00:17 11.28250 107.29508 16269 ft 397 kts 26°
2026-05-05 00:18 11.30718 107.30707 16570 ft 400 kts 26°
2026-05-05 00:18 11.33242 107.31935 16871 ft 402 kts 26°
2026-05-05 00:18 11.35771 107.33165 17189 ft 404 kts 26°
2026-05-05 00:18 11.38318 107.34405 17494 ft 406 kts 26°
2026-05-05 00:19 11.40875 107.35650 17783 ft 409 kts 26°
2026-05-05 00:19 11.43417 107.36888 18092 ft 411 kts 26°
2026-05-05 00:19 11.46003 107.38148 18349 ft 413 kts 26°
2026-05-05 00:19 11.48607 107.39417 18608 ft 415 kts 26°
2026-05-05 00:20 11.51216 107.40688 18892 ft 416 kts 26°
2026-05-05 00:20 11.53838 107.41965 19135 ft 418 kts 26°
2026-05-05 00:20 11.56468 107.43248 19397 ft 420 kts 26°
2026-05-05 00:20 11.59074 107.44518 19661 ft 422 kts 26°
2026-05-05 00:21 11.61725 107.45811 19905 ft 423 kts 26°
2026-05-05 00:21 11.64396 107.47115 20180 ft 425 kts 26°
2026-05-05 00:21 11.67071 107.48420 20427 ft 427 kts 26°
2026-05-05 00:21 11.69754 107.49730 20685 ft 428 kts 26°
2026-05-05 00:22 11.72410 107.51027 20925 ft 430 kts 26°
2026-05-05 00:22 11.75122 107.52350 21163 ft 432 kts 26°
2026-05-05 00:22 11.77833 107.53675 21425 ft 433 kts 26°
2026-05-05 00:22 11.80558 107.55005 21648 ft 435 kts 26°
2026-05-05 00:23 11.83293 107.56342 21881 ft 437 kts 26°
2026-05-05 00:23 11.86037 107.57683 22123 ft 438 kts 26°
2026-05-05 00:23 11.88765 107.59016 22334 ft 440 kts 26°
2026-05-05 00:23 11.91542 107.60374 22576 ft 442 kts 26°
2026-05-05 00:24 11.94316 107.61730 22800 ft 443 kts 26°
2026-05-05 00:24 11.97107 107.63095 23027 ft 445 kts 26°
2026-05-05 00:24 11.99869 107.64447 23246 ft 446 kts 26°
2026-05-05 00:24 12.02675 107.65820 23464 ft 448 kts 26°
2026-05-05 00:25 12.05491 107.67198 23659 ft 449 kts 26°
2026-05-05 00:25 12.08318 107.68582 23854 ft 451 kts 26°
2026-05-05 00:25 12.11154 107.69971 24035 ft 452 kts 26°
2026-05-05 00:25 12.13996 107.71363 24226 ft 453 kts 26°
2026-05-05 00:26 12.16808 107.72741 24404 ft 455 kts 26°
2026-05-05 00:26 12.19672 107.74145 24565 ft 456 kts 26°
2026-05-05 00:26 12.22548 107.75555 24732 ft 458 kts 26°
2026-05-05 00:26 12.25427 107.76966 24950 ft 459 kts 26°
2026-05-05 00:27 12.28272 107.78361 25126 ft 460 kts 26°
2026-05-05 00:27 12.31152 107.79799 25305 ft 461 kts 28°
2026-05-05 00:27 12.33900 107.81504 25479 ft 462 kts 36°
2026-05-05 00:27 12.36408 107.83568 25664 ft 463 kts 41°
2026-05-05 00:28 12.38821 107.85763 25847 ft 465 kts 43°
2026-05-05 00:28 12.41195 107.88011 26039 ft 466 kts 43°
2026-05-05 00:28 12.43558 107.90285 26221 ft 467 kts 44°
2026-05-05 00:28 12.45894 107.92537 26396 ft 468 kts 44°
2026-05-05 00:29 12.48272 107.94822 26608 ft 470 kts 43°
2026-05-05 00:29 12.50665 107.97111 26786 ft 471 kts 43°
2026-05-05 00:29 12.53079 107.99410 26861 ft 476 kts 43°
2026-05-05 00:29 12.55518 108.01726 27028 ft 478 kts 43°
2026-05-05 00:30 12.57960 108.04042 27196 ft 480 kts 43°
2026-05-05 00:30 12.60387 108.06345 27415 ft 480 kts 43°
2026-05-05 00:30 12.62838 108.08669 27624 ft 482 kts 43°
2026-05-05 00:30 12.65314 108.11002 27790 ft 484 kts 41°
2026-05-05 00:31 12.67960 108.13141 28032 ft 485 kts 36°
2026-05-05 00:31 12.70701 108.15177 28167 ft 487 kts 35°
2026-05-05 00:31 12.73440 108.17149 28420 ft 488 kts 35°
2026-05-05 00:31 12.76239 108.19134 28563 ft 490 kts 34°
2026-05-05 00:32 12.79055 108.21118 28822 ft 491 kts 34°
2026-05-05 00:32 12.81875 108.23104 28945 ft 494 kts 34°
2026-05-05 00:32 12.84707 108.25103 29194 ft 494 kts 34°
2026-05-05 00:32 12.87536 108.27105 29467 ft 494 kts 34°
2026-05-05 00:33 12.90334 108.29087 29648 ft 496 kts 34°
2026-05-05 00:33 12.93172 108.31103 29829 ft 497 kts 34°
2026-05-05 00:33 12.96019 108.33125 30024 ft 499 kts 34°
2026-05-05 00:33 12.98882 108.35160 30209 ft 500 kts 34°
2026-05-05 00:34 13.01747 108.37197 30391 ft 501 kts 34°
2026-05-05 00:34 13.04581 108.39212 30586 ft 502 kts 34°
2026-05-05 00:34 13.07453 108.41255 30772 ft 503 kts 34°
2026-05-05 00:34 13.10337 108.43307 30969 ft 504 kts 34°
2026-05-05 00:35 13.13239 108.45373 30976 ft 510 kts 34°
2026-05-05 00:35 13.16162 108.47453 31168 ft 511 kts 34°
2026-05-05 00:35 13.19076 108.49528 31480 ft 509 kts 34°
2026-05-05 00:35 13.21943 108.51571 31753 ft 508 kts 34°
2026-05-05 00:36 13.24845 108.53639 31913 ft 509 kts 34°
2026-05-05 00:36 13.27757 108.55714 32082 ft 510 kts 34°
2026-05-05 00:36 13.30674 108.57794 32235 ft 511 kts 34°
2026-05-05 00:36 13.33597 108.59882 32401 ft 512 kts 34°
2026-05-05 00:37 13.36526 108.61971 32566 ft 513 kts 33°
2026-05-05 00:37 13.39466 108.64064 32738 ft 514 kts 33°
2026-05-05 00:37 13.42403 108.66154 32935 ft 513 kts 33°
2026-05-05 00:37 13.45293 108.68212 33203 ft 512 kts 33°
2026-05-05 00:38 13.48216 108.70295 33479 ft 511 kts 33°
2026-05-05 00:38 13.51131 108.72373 33766 ft 509 kts 33°
2026-05-05 00:38 13.54035 108.74445 34084 ft 506 kts 33°
2026-05-05 00:38 13.56930 108.76510 34308 ft 506 kts 33°
2026-05-05 00:39 13.59825 108.78577 34493 ft 506 kts 33°
2026-05-05 00:39 13.62681 108.80616 34765 ft 505 kts 33°
2026-05-05 00:39 13.65569 108.82679 34964 ft 506 kts 33°
2026-05-05 00:39 13.68458 108.84743 35197 ft 505 kts 33°
2026-05-05 00:40 13.71344 108.86806 35424 ft 506 kts 33°
2026-05-05 00:40 13.74235 108.88873 35660 ft 505 kts 33°
2026-05-05 00:40 13.77120 108.90936 35913 ft 505 kts 33°
2026-05-05 00:40 13.80003 108.92999 36147 ft 505 kts 33°
2026-05-05 00:41 13.82847 108.95034 36400 ft 505 kts 33°
2026-05-05 00:41 13.85733 108.97100 36617 ft 505 kts 33°
2026-05-05 00:41 13.88618 108.99165 36867 ft 505 kts 33°
2026-05-05 00:41 13.91508 109.01199 37129 ft 503 kts 30°
2026-05-05 00:42 13.94568 109.02922 37386 ft 500 kts 22°
2026-05-05 00:42 13.97812 109.04167 37657 ft 496 kts 13°
2026-05-05 00:42 14.01171 109.04901 37931 ft 493 kts
2026-05-05 00:42 14.04511 109.05408 38207 ft 491 kts
2026-05-05 00:43 14.07895 109.05839 38462 ft 490 kts
2026-05-05 00:43 14.11284 109.06232 38709 ft 489 kts
2026-05-05 00:43 14.14662 109.06615 38946 ft 488 kts
2026-05-05 00:43 14.18031 109.07000 39197 ft 486 kts
2026-05-05 00:44 14.21383 109.07391 39445 ft 484 kts
2026-05-05 00:44 14.24727 109.07788 39664 ft 484 kts
2026-05-05 00:44 14.28066 109.08190 39858 ft 483 kts
2026-05-05 00:44 14.31368 109.08590 40053 ft 482 kts
2026-05-05 00:45 14.34697 109.08995 40250 ft 481 kts
2026-05-05 00:45 14.38029 109.09403 40416 ft 481 kts
2026-05-05 00:45 14.41353 109.09809 40613 ft 480 kts
2026-05-05 00:45 14.44622 109.10207 40797 ft 479 kts
2026-05-05 00:46 14.47935 109.10610 40944 ft 479 kts
2026-05-05 00:46 14.54562 109.11416 40970 ft 478 kts
2026-05-05 00:47 14.61134 109.12216 40962 ft 478 kts
2026-05-05 00:47 14.67739 109.13022 40962 ft 477 kts
2026-05-05 00:48 14.74335 109.13827 40964 ft 477 kts
2026-05-05 00:48 14.80938 109.14633 40962 ft 477 kts
2026-05-05 00:49 14.87494 109.15434 40964 ft 478 kts
2026-05-05 00:49 14.94109 109.16243 40962 ft 478 kts
2026-05-05 00:50 15.00687 109.17047 40965 ft 478 kts
2026-05-05 00:50 15.07300 109.17857 40965 ft 478 kts
2026-05-05 00:51 15.13881 109.18663 40963 ft 478 kts
2026-05-05 00:51 15.20488 109.19473 40965 ft 479 kts
2026-05-05 00:52 15.27119 109.20286 40963 ft 479 kts
2026-05-05 00:52 15.33704 109.21094 40963 ft 479 kts
2026-05-05 00:53 15.40328 109.21907 40967 ft 479 kts
2026-05-05 00:53 15.46949 109.22721 40970 ft 479 kts
2026-05-05 00:54 15.53526 109.23531 40965 ft 478 kts
2026-05-05 00:54 15.60139 109.24345 40966 ft 478 kts
2026-05-05 00:55 15.66746 109.25161 40970 ft 478 kts
2026-05-05 00:55 15.73299 109.25958 40966 ft 478 kts
2026-05-05 00:56 15.79914 109.26764 40965 ft 478 kts
2026-05-05 00:56 15.86484 109.27567 40965 ft 479 kts
2026-05-05 00:57 15.93113 109.28380 40968 ft 480 kts
2026-05-05 00:57 15.99755 109.29196 40964 ft 480 kts
2026-05-05 00:58 16.06358 109.30007 40966 ft 480 kts
2026-05-05 00:58 16.12992 109.30822 40970 ft 480 kts
2026-05-05 00:59 16.19596 109.31635 40967 ft 480 kts
2026-05-05 00:59 16.26229 109.32450 40967 ft 479 kts
2026-05-05 01:00 16.32810 109.33260 40971 ft 479 kts
2026-05-05 01:00 16.39437 109.34077 40977 ft 479 kts
2026-05-05 01:01 16.46058 109.34893 40975 ft 479 kts
2026-05-05 01:01 16.52644 109.35706 40975 ft 479 kts
2026-05-05 01:02 16.59269 109.36524 40972 ft 479 kts
2026-05-05 01:02 16.65850 109.37336 40972 ft 479 kts
2026-05-05 01:03 16.72469 109.38155 40972 ft 479 kts
2026-05-05 01:03 16.78994 109.39721 40969 ft 487 kts 17°
2026-05-05 01:04 16.84855 109.43281 40977 ft 498 kts 37°
2026-05-05 01:04 16.89453 109.48767 40976 ft 507 kts 51°
2026-05-05 01:04 16.91468 109.51798 40971 ft 508 kts 53°
2026-05-05 01:05 16.95382 109.57960 40973 ft 509 kts 53°
2026-05-05 01:05 16.99264 109.64087 40971 ft 509 kts 53°
2026-05-05 01:06 17.03206 109.70234 40964 ft 509 kts 53°
2026-05-05 01:06 17.07158 109.76365 40973 ft 509 kts 53°
2026-05-05 01:07 17.11093 109.82468 40969 ft 509 kts 53°
2026-05-05 01:07 17.15048 109.88611 40975 ft 509 kts 53°
2026-05-05 01:08 17.19003 109.94761 40977 ft 509 kts 53°
2026-05-05 01:08 17.22932 110.00877 40977 ft 509 kts 53°
2026-05-05 01:09 17.26880 110.07029 40974 ft 509 kts 53°
2026-05-05 01:09 17.30811 110.13158 40974 ft 510 kts 53°
2026-05-05 01:10 17.34759 110.19321 40970 ft 510 kts 53°
2026-05-05 01:10 17.38043 110.24451 40979 ft 510 kts 53°
2026-05-05 01:11 17.41995 110.30630 40976 ft 510 kts 53°
2026-05-05 01:11 17.45970 110.36784 40981 ft 510 kts 53°
2026-05-05 01:12 17.50616 110.43913 40976 ft 510 kts 53°
2026-05-05 01:12 17.53937 110.49020 40981 ft 510 kts 53°
2026-05-05 01:13 17.58572 110.56170 40975 ft 510 kts 53°
2026-05-05 01:13 17.61914 110.61334 40966 ft 510 kts 53°
2026-05-05 01:14 17.65874 110.67460 40977 ft 510 kts 53°
2026-05-05 01:14 17.69858 110.73626 40967 ft 510 kts 53°
2026-05-05 01:15 17.73814 110.79755 40970 ft 510 kts 53°
2026-05-05 01:15 17.77795 110.85927 40976 ft 510 kts 53°
2026-05-05 01:16 17.81773 110.92103 40980 ft 510 kts 53°
2026-05-05 01:16 17.85744 110.98271 40966 ft 510 kts 53°
2026-05-05 01:17 17.89689 111.04405 40975 ft 510 kts 53°
2026-05-05 01:17 17.93658 111.10583 40971 ft 510 kts 53°
2026-05-05 01:18 17.97633 111.16775 40969 ft 511 kts 53°
2026-05-05 01:18 18.01580 111.22930 40985 ft 511 kts 53°
2026-05-05 01:19 18.05551 111.29129 40981 ft 511 kts 53°
2026-05-05 01:19 18.09522 111.35333 40978 ft 511 kts 53°
2026-05-05 01:20 18.13463 111.41496 40986 ft 511 kts 53°
2026-05-05 01:20 18.17428 111.47701 40972 ft 511 kts 53°
2026-05-05 01:21 18.21370 111.53879 40978 ft 511 kts 53°
2026-05-05 01:21 18.25336 111.60097 40977 ft 511 kts 53°
2026-05-05 01:22 18.29301 111.66322 40973 ft 511 kts 53°
2026-05-05 01:22 18.33236 111.72505 40973 ft 511 kts 53°
2026-05-05 01:23 18.37192 111.78727 40979 ft 511 kts 53°
2026-05-05 01:23 18.41147 111.84954 40980 ft 511 kts 54°
2026-05-05 01:24 18.45073 111.91141 40977 ft 511 kts 54°
2026-05-05 01:24 18.49024 111.97373 40979 ft 512 kts 53°
2026-05-05 01:25 18.52980 112.03620 40982 ft 512 kts 53°
2026-05-05 01:25 18.56931 112.09865 40982 ft 512 kts 53°
2026-05-05 01:26 18.60852 112.16068 40980 ft 512 kts 53°
2026-05-05 01:26 18.64889 112.22255 40978 ft 510 kts 48°
2026-05-05 01:27 18.69961 112.27311 40982 ft 503 kts 34°
2026-05-05 01:27 18.75590 112.31684 40984 ft 502 kts 32°
2026-05-05 01:28 18.81302 112.35937 40979 ft 502 kts 31°
2026-05-05 01:28 18.86968 112.40164 40979 ft 502 kts 32°
2026-05-05 01:29 18.92667 112.44449 40981 ft 502 kts 32°
2026-05-05 01:29 18.98368 112.48718 40978 ft 501 kts 29°
2026-05-05 01:30 19.04481 112.52077 40990 ft 497 kts 21°
2026-05-05 01:30 19.10783 112.55061 40985 ft 496 kts 19°
2026-05-05 01:31 19.17108 112.57977 40985 ft 496 kts 19°
2026-05-05 01:31 19.23387 112.60880 40985 ft 496 kts 20°
2026-05-05 01:32 19.29702 112.63818 40985 ft 496 kts 20°
2026-05-05 01:32 19.36026 112.66769 40986 ft 496 kts 20°
2026-05-05 01:33 19.42292 112.69697 40990 ft 495 kts 20°
2026-05-05 01:33 19.48611 112.72651 40988 ft 495 kts 20°
2026-05-05 01:34 19.54921 112.75603 40988 ft 496 kts 20°
2026-05-05 01:34 19.61190 112.78539 40987 ft 496 kts 20°
2026-05-05 01:35 19.67507 112.81499 40993 ft 496 kts 20°
2026-05-05 01:35 19.73829 112.84464 40990 ft 496 kts 20°
2026-05-05 01:36 19.80110 112.87413 40991 ft 497 kts 20°
2026-05-05 01:36 19.86437 112.90386 40996 ft 497 kts 20°
2026-05-05 01:37 19.92754 112.93357 41005 ft 497 kts 20°
2026-05-05 01:37 19.99040 112.96315 40998 ft 497 kts 20°
2026-05-05 01:38 20.05362 112.99293 40998 ft 497 kts 20°
2026-05-05 01:38 20.11687 113.02275 40999 ft 497 kts 20°
2026-05-05 01:39 20.17971 113.05241 41002 ft 497 kts 20°
2026-05-05 01:39 20.24299 113.08232 41002 ft 497 kts 19°
2026-05-05 01:40 20.30616 113.11218 40999 ft 497 kts 19°
2026-05-05 01:40 20.36891 113.14187 41001 ft 497 kts 19°
2026-05-05 01:41 20.43213 113.17180 41001 ft 497 kts 19°
2026-05-05 01:41 20.49532 113.20175 41001 ft 497 kts 19°
2026-05-05 01:42 20.55811 113.23155 41004 ft 497 kts 19°
2026-05-05 01:42 20.62128 113.26155 41004 ft 497 kts 19°
2026-05-05 01:43 20.68451 113.29160 41006 ft 497 kts 19°
2026-05-05 01:43 20.74773 113.32168 41007 ft 497 kts 19°
2026-05-05 01:44 20.81044 113.35155 41008 ft 497 kts 19°
2026-05-05 01:44 20.87370 113.38170 41007 ft 497 kts 19°
2026-05-05 01:45 20.93645 113.41163 41009 ft 497 kts 19°
2026-05-05 01:45 20.99958 113.44178 41013 ft 497 kts 19°
2026-05-05 01:46 21.06278 113.47199 41012 ft 497 kts 19°
2026-05-05 01:46 21.12551 113.50200 41012 ft 498 kts 19°
2026-05-05 01:47 21.18878 113.53229 41011 ft 498 kts 19°
2026-05-05 01:47 21.25206 113.56262 41014 ft 498 kts 19°
2026-05-05 01:48 21.31530 113.59296 41015 ft 498 kts 19°
2026-05-05 01:48 21.37821 113.62317 41011 ft 498 kts 19°
2026-05-05 01:49 21.44160 113.65363 41012 ft 499 kts 19°
2026-05-05 01:49 21.50499 113.68413 41015 ft 499 kts 19°
2026-05-05 01:50 21.56795 113.71446 41016 ft 499 kts 19°
2026-05-05 01:50 21.63131 113.74500 41012 ft 499 kts 19°
2026-05-05 01:51 21.69471 113.77559 41020 ft 500 kts 19°
2026-05-05 01:51 21.75815 113.80623 41020 ft 500 kts 19°
2026-05-05 01:52 21.82116 113.83670 41026 ft 500 kts 19°
2026-05-05 01:52 21.88464 113.86742 41027 ft 500 kts 19°
2026-05-05 01:53 21.94806 113.89814 41038 ft 500 kts 19°
2026-05-05 01:53 22.01113 113.92872 41044 ft 500 kts 19°
2026-05-05 01:54 22.07456 113.95949 41043 ft 500 kts 19°
2026-05-05 01:54 22.13802 113.99032 41045 ft 500 kts 19°
2026-05-05 01:55 22.20102 114.02090 41066 ft 499 kts 18°
2026-05-05 01:55 22.26617 114.04490 41042 ft 494 kts 11°
2026-05-05 01:56 22.33199 114.06619 41046 ft 493 kts 10°
2026-05-05 01:56 22.39786 114.08698 41055 ft 494 kts 10°
2026-05-05 01:57 22.46335 114.10765 41029 ft 492 kts
2026-05-05 01:57 22.53004 114.11743 41032 ft 477 kts 352°
2026-05-05 01:58 22.59412 114.10558 41038 ft 461 kts 335°
2026-05-05 01:58 22.65224 114.07864 41040 ft 456 kts 329°
2026-05-05 01:59 22.70947 114.04884 41035 ft 456 kts 329°
2026-05-05 01:59 22.76670 114.01879 41035 ft 457 kts 329°
2026-05-05 02:00 22.82359 113.98926 41042 ft 456 kts 329°
2026-05-05 02:00 22.88082 113.95974 41037 ft 455 kts 329°
2026-05-05 02:01 22.93802 113.93025 41034 ft 455 kts 329°
2026-05-05 02:01 22.99475 113.90068 41038 ft 455 kts 328°
2026-05-05 02:02 23.05181 113.87088 41039 ft 455 kts 328°
2026-05-05 02:02 23.10997 113.84325 41039 ft 458 kts 333°
2026-05-05 02:03 23.16951 113.81924 41045 ft 459 kts 334°
2026-05-05 02:03 23.22967 113.79565 41042 ft 459 kts 334°
2026-05-05 02:04 23.28989 113.77207 41047 ft 459 kts 334°
2026-05-05 02:04 23.34958 113.74858 41050 ft 460 kts 334°
2026-05-05 02:05 23.40974 113.72487 41047 ft 459 kts 334°
2026-05-05 02:05 23.46978 113.70119 41048 ft 459 kts 334°
2026-05-05 02:06 23.52987 113.67744 41056 ft 459 kts 334°
2026-05-05 02:06 23.58962 113.65381 41062 ft 459 kts 334°
2026-05-05 02:07 23.64968 113.63003 41059 ft 459 kts 334°
2026-05-05 02:07 23.70933 113.60639 41058 ft 459 kts 334°
2026-05-05 02:08 23.76933 113.58258 41062 ft 458 kts 333°
2026-05-05 02:08 23.82917 113.55884 41076 ft 457 kts 333°
2026-05-05 02:09 23.88858 113.53524 41061 ft 457 kts 333°
2026-05-05 02:09 23.94829 113.51147 41071 ft 456 kts 333°
2026-05-05 02:10 24.00761 113.48784 41055 ft 456 kts 333°
2026-05-05 02:10 24.06729 113.46405 41078 ft 457 kts 333°
2026-05-05 02:11 24.12701 113.44023 41059 ft 457 kts 333°
2026-05-05 02:11 24.18809 113.42046 41059 ft 467 kts 343°
2026-05-05 02:12 24.28720 113.41729 41062 ft 479 kts 354°
2026-05-05 02:13 24.35349 113.41982 41060 ft 480 kts 354°
2026-05-05 02:13 24.42023 113.42233 41066 ft 479 kts 353°
2026-05-05 02:14 24.48691 113.42428 41060 ft 478 kts 353°
2026-05-05 02:14 24.55351 113.42603 41063 ft 479 kts 353°
2026-05-05 02:15 24.61968 113.42784 41060 ft 479 kts 353°
2026-05-05 02:15 24.68632 113.42970 41067 ft 479 kts 353°
2026-05-05 02:16 24.75313 113.43160 41061 ft 480 kts 353°
2026-05-05 02:16 24.81956 113.43350 41064 ft 480 kts 353°
2026-05-05 02:17 24.88642 113.43541 41060 ft 480 kts 353°
2026-05-05 02:17 24.95326 113.43732 41075 ft 480 kts 353°
2026-05-05 02:18 25.01966 113.43920 41060 ft 481 kts 353°
2026-05-05 02:18 25.08665 113.44110 41064 ft 481 kts 353°
2026-05-05 02:19 25.15359 113.44303 41063 ft 481 kts 353°
2026-05-05 02:19 25.22012 113.44492 41103 ft 481 kts 352°
2026-05-05 02:20 25.28712 113.44680 41070 ft 483 kts 352°
2026-05-05 02:20 25.35425 113.44870 41052 ft 482 kts 352°
2026-05-05 02:21 25.42089 113.45069 41056 ft 481 kts 352°
2026-05-05 02:21 25.48779 113.45271 41070 ft 481 kts 352°
2026-05-05 02:22 25.55457 113.45460 41069 ft 480 kts 352°
2026-05-05 02:22 25.62092 113.45645 41060 ft 479 kts 352°
2026-05-05 02:23 25.68763 113.45837 41063 ft 479 kts 352°
2026-05-05 02:23 25.75435 113.46032 41062 ft 479 kts 352°
2026-05-05 02:24 25.82108 113.46225 41066 ft 479 kts 352°
2026-05-05 02:24 25.88751 113.46420 41059 ft 481 kts 352°
2026-05-05 02:25 25.95440 113.46630 41057 ft 481 kts 352°
2026-05-05 02:25 26.02131 113.46835 41055 ft 481 kts 352°
2026-05-05 02:26 26.08812 113.47042 41080 ft 480 kts 352°
2026-05-05 02:26 26.15492 113.47245 41048 ft 484 kts 352°
2026-05-05 02:27 26.22218 113.47459 40925 ft 479 kts 352°
2026-05-05 02:27 26.25551 113.47566 40681 ft 480 kts 352°
2026-05-05 02:27 26.28901 113.47667 40446 ft 483 kts 352°
2026-05-05 02:27 26.32226 113.47769 40216 ft 485 kts 352°
2026-05-05 02:28 26.35601 113.47875 39980 ft 486 kts 352°
2026-05-05 02:28 26.38984 113.47982 39749 ft 487 kts 352°
2026-05-05 02:28 26.42376 113.48089 39520 ft 487 kts 352°
2026-05-05 02:28 26.45764 113.48194 39299 ft 488 kts 352°
2026-05-05 02:29 26.49163 113.48301 39071 ft 489 kts 352°
2026-05-05 02:29 26.52568 113.48407 38843 ft 489 kts 352°
2026-05-05 02:29 26.55931 113.48513 38615 ft 490 kts 352°
2026-05-05 02:29 26.59344 113.48620 38355 ft 490 kts 352°
2026-05-05 02:30 26.62751 113.48728 38089 ft 490 kts 352°
2026-05-05 02:30 26.66158 113.48835 37875 ft 489 kts 352°
2026-05-05 02:30 26.69558 113.48943 37618 ft 488 kts 352°
2026-05-05 02:30 26.72950 113.49050 37365 ft 487 kts 352°
2026-05-05 02:31 26.76295 113.49156 37124 ft 487 kts 353°
2026-05-05 02:31 26.79680 113.49275 36873 ft 486 kts 353°
2026-05-05 02:31 26.83062 113.49383 36640 ft 485 kts 352°
2026-05-05 02:31 26.86433 113.49484 36393 ft 485 kts 352°
2026-05-05 02:32 26.89805 113.49587 36157 ft 484 kts 352°
2026-05-05 02:32 26.93168 113.49690 35966 ft 484 kts 352°
2026-05-05 02:32 26.96535 113.49796 35732 ft 484 kts 352°
2026-05-05 02:32 26.99857 113.49901 35504 ft 484 kts 352°
2026-05-05 02:33 27.03216 113.50006 35270 ft 483 kts 352°
2026-05-05 02:33 27.06576 113.50112 35042 ft 483 kts 352°
2026-05-05 02:33 27.09939 113.50218 34785 ft 482 kts 352°
2026-05-05 02:33 27.13275 113.50325 34157 ft 479 kts 352°
2026-05-05 02:34 27.16612 113.50430 33263 ft 480 kts 352°
2026-05-05 02:34 27.19953 113.50533 32411 ft 482 kts 352°
2026-05-05 02:34 27.23261 113.50552 31510 ft 478 kts 348°
2026-05-05 02:34 27.26533 113.50041 30531 ft 470 kts 338°
2026-05-05 02:35 27.29662 113.49021 29503 ft 469 kts 334°
2026-05-05 02:35 27.32753 113.47890 28736 ft 465 kts 334°
2026-05-05 02:35 27.35815 113.46762 28050 ft 460 kts 335°
2026-05-05 02:35 27.38843 113.45648 27379 ft 456 kts 335°
2026-05-05 02:36 27.41844 113.44545 26725 ft 452 kts 335°
2026-05-05 02:36 27.44783 113.43467 26066 ft 448 kts 335°
2026-05-05 02:36 27.47735 113.42395 25434 ft 445 kts 338°
2026-05-05 02:36 27.50785 113.41684 24711 ft 450 kts 349°
2026-05-05 02:37 27.53920 113.41513 24001 ft 451 kts 354°
2026-05-05 02:37 27.57054 113.41472 23239 ft 449 kts 355°
2026-05-05 02:37 27.60120 113.41448 22546 ft 444 kts 356°
2026-05-05 02:37 27.63192 113.41513 21863 ft 441 kts
2026-05-05 02:38 27.66190 113.42244 21194 ft 443 kts 17°
2026-05-05 02:38 27.68946 113.43807 20506 ft 443 kts 28°
2026-05-05 02:38 27.71564 113.45625 19801 ft 440 kts 30°
2026-05-05 02:38 27.74145 113.47458 19120 ft 436 kts 30°
2026-05-05 02:39 27.76675 113.49250 18434 ft 433 kts 31°
2026-05-05 02:39 27.79215 113.51043 17668 ft 429 kts 30°
2026-05-05 02:39 27.81847 113.52578 16968 ft 421 kts 19°
2026-05-05 02:39 27.84668 113.53288 16327 ft 412 kts
2026-05-05 02:40 27.87499 113.53581 15669 ft 406 kts
2026-05-05 02:40 27.90302 113.53816 15039 ft 401 kts
2026-05-05 02:40 27.93038 113.54045 14418 ft 397 kts
2026-05-05 02:40 27.95779 113.54280 13780 ft 393 kts
2026-05-05 02:41 27.98500 113.54519 13082 ft 389 kts
2026-05-05 02:41 28.01192 113.54758 12409 ft 384 kts
2026-05-05 02:41 28.03806 113.54984 11765 ft 379 kts
2026-05-05 02:41 28.06411 113.55214 11305 ft 369 kts
2026-05-05 02:42 28.08914 113.55439 11169 ft 352 kts
2026-05-05 02:42 28.11303 113.55660 11038 ft 335 kts
2026-05-05 02:42 28.13579 113.55833 10929 ft 320 kts
2026-05-05 02:42 28.15751 113.55972 10788 ft 306 kts
2026-05-05 02:43 28.17806 113.56106 10673 ft 293 kts
2026-05-05 02:43 28.19796 113.56239 10531 ft 280 kts
2026-05-05 02:43 28.21710 113.56366 10376 ft 272 kts
2026-05-05 02:43 28.23585 113.56492 10089 ft 269 kts
2026-05-05 02:44 28.25444 113.56620 9783 ft 277 kts
2026-05-05 02:44 28.27412 113.56759 9647 ft 287 kts
2026-05-05 02:44 28.29411 113.56896 9253 ft 288 kts
2026-05-05 02:44 28.31413 113.57032 8787 ft 288 kts
2026-05-05 02:45 28.33402 113.57169 8420 ft 285 kts
2026-05-05 02:45 28.35368 113.57260 8112 ft 282 kts 357°
2026-05-05 02:45 28.37242 113.56799 7809 ft 279 kts 334°
2026-05-05 02:45 28.38753 113.55487 7492 ft 274 kts 308°
2026-05-05 02:46 28.39597 113.53567 7197 ft 274 kts 283°
2026-05-05 02:46 28.39746 113.51421 6879 ft 271 kts 271°
2026-05-05 02:46 28.39800 113.49281 6580 ft 271 kts 272°
2026-05-05 02:46 28.39884 113.47186 6352 ft 265 kts 273°
2026-05-05 02:47 28.40018 113.45150 6214 ft 252 kts 276°
2026-05-05 02:47 28.40188 113.43213 6085 ft 240 kts 276°
2026-05-05 02:47 28.40354 113.41362 5956 ft 231 kts 275°
2026-05-05 02:47 28.40511 113.39578 5823 ft 224 kts 275°
2026-05-05 02:48 28.40665 113.37828 5614 ft 222 kts 275°
2026-05-05 02:48 28.40816 113.36088 5356 ft 221 kts 275°
2026-05-05 02:48 28.40946 113.34359 5091 ft 219 kts 271°
2026-05-05 02:48 28.40926 113.32667 4905 ft 214 kts 267°
2026-05-05 02:49 28.40852 113.31013 4787 ft 204 kts 266°
2026-05-05 02:49 28.40779 113.29440 4648 ft 196 kts 265°
2026-05-05 02:49 28.40709 113.27903 4526 ft 193 kts 265°
2026-05-05 02:49 28.40638 113.26377 4447 ft 193 kts 265°
2026-05-05 02:50 28.40565 113.24883 4375 ft 191 kts 264°
2026-05-05 02:50 28.40492 113.23378 4366 ft 188 kts 265°
2026-05-05 02:50 28.40191 113.22006 4249 ft 174 kts 238°
2026-05-05 02:50 28.39270 113.21178 3924 ft 172 kts 194°
2026-05-05 02:51 28.38092 113.21096 3665 ft 167 kts 179°
2026-05-05 02:51 28.36957 113.21182 3410 ft 160 kts 178°
2026-05-05 02:51 28.35882 113.21269 3327 ft 149 kts 179°
2026-05-05 02:51 28.34891 113.21356 3197 ft 138 kts 179°
2026-05-05 02:52 28.33945 113.21426 2918 ft 135 kts 178°
2026-05-05 02:52 28.33027 113.21485 2803 ft 131 kts 178°
2026-05-05 02:52 28.32090 113.21549 2558 ft 138 kts 176°
2026-05-05 02:52 28.31143 113.21626 2265 ft 140 kts 176°
2026-05-05 02:53 28.30149 113.21683 1984 ft 145 kts 178°
2026-05-05 02:53 28.29130 113.21728 1641 ft 144 kts 177°
2026-05-05 02:53 28.28143 113.21794 1352 ft 141 kts 176°
2026-05-05 02:53 28.27172 113.21862 1145 ft 137 kts 176°
2026-05-05 02:54 28.26251 113.21923 1022 ft 130 kts 177°
2026-05-05 02:54 28.25358 113.21973 944 ft 131 kts 178°
2026-05-05 02:54 28.24442 113.22023 826 ft 131 kts 177°
2026-05-05 02:54 28.23551 113.22061 741 ft 127 kts 178°
2026-05-05 02:55 28.22676 113.22111 622 ft 127 kts 175°
2026-05-05 02:55 28.21780 113.22189 430 ft 130 kts 177°
2026-05-05 02:55 28.20880 113.22255 280 ft 129 kts 177°
2026-05-05 02:55 28.20011 113.22306 228 ft 118 kts 176°
2026-05-05 02:56 28.19296 113.22342 223 ft 90 kts 177°
2026-05-05 02:56 28.18824 113.22311 224 ft 28 kts 202°
2026-05-05 02:56 28.18692 113.22245 227 ft 21 kts 204°
2026-05-05 02:56 28.18549 113.22199 225 ft 22 kts 181°
2026-05-05 02:57 28.18394 113.22204 224 ft 23 kts 176°
2026-05-05 02:57 28.18235 113.22215 224 ft 23 kts 176°
2026-05-05 02:57 28.18088 113.22200 228 ft 19 kts 227°
2026-05-05 02:57 28.18069 113.22059 229 ft 18 kts 279°
2026-05-05 02:58 28.18092 113.21907 221 ft 21 kts 275°
2026-05-05 02:58 28.18196 113.21834 223 ft 20 kts 354°
2026-05-05 02:58 28.18341 113.21825 223 ft 22 kts 357°
2026-05-05 02:58 28.18504 113.21816 221 ft 24 kts 357°
2026-05-05 02:59 28.18682 113.21802 221 ft 27 kts 356°
2026-05-05 02:59 28.18793 113.21793 223 ft 10 kts 356°
2026-05-05 02:59 28.18867 113.21777 222 ft 10 kts 331°
2026-05-05 02:59 28.18878 113.21707 220 ft 10 kts 253°
2026-05-05 03:00 28.18825 113.21684 222 ft 10 kts 178°
2026-05-05 03:00 28.18752 113.21679 224 ft 10 kts 211°
2026-05-05 03:00 28.18744 113.21662 223 ft 0 kts 256°
2026-05-05 03:00 28.18744 113.21630 223 ft 8 kts 267°
2026-05-05 03:01 28.18743 113.21602 220 ft 0 kts 267°
2026-05-05 03:01 28.18743 113.21600 220 ft 0 kts 267°